Regional Weather Roundup
Issued by NWS

Home | Current Version | Previous Version | Text Only | Print | Product List | Glossary On
Versions: 1 2 3 4 5 6 7 8 9 10 11 12 13 14 15 16 17 18 19 20 21 22 23 24 25 26 27 28 29 30 31 32 33 34 35 36 37 38 39 40 41 42 43 44 45 46 47 48 49 50
000
ASUS44 KLIX 011910
RWRLA
LOUISIANA WEATHER ROUNDUP
NATIONAL WEATHER SERVICE NEW ORLEANS LA
200 PM CDT MON SEP 01 2014

NOTE: "FAIR" INDICATES FEW OR NO CLOUDS BELOW 12,000 FEET WITH NO
      SIGNIFICANT WEATHER AND/OR OBSTRUCTIONS TO VISIBILITY.
      SKY/WX - SKY CONDITION AND SIGNIFICANT WEATHER.
      TMP - AIR TEMPERATURE.    DP   - DEWPOINT TEMPERATURE.
      RH  - RELATIVE HUMIDITY.  PRES - PRESSURE.
      HX  - HEAT INDEX.         WCI  - WIND CHILL INDEX.

*  THESE STATIONS ARE NOT NWS OR FAA STATIONS AND ARE NOT UNDER
   NWS QUALITY CONTROL.

LAZ040-048-061>063-065-066-069-012000-
SOUTHEAST LOUISIANA

CITY           SKY/WX    TMP DP  RH WIND       PRES   REMARKS
N.O. AUDUBON   NOT AVBL
N.O. INTL ARPT PTSUNNY   90  75  61 S15       30.03F THUNDER HX 100
N.O. LAKEFRONT RAIN      84  77  79 SE15G32   30.05S
N.O. DOWNTOWN* CLOUDY    84  73  70 S6G16     30.04S
SLIDELL        PTSUNNY   85  76  74 SE7       30.04F
BATON ROUGE    MOSUNNY   91  72  53 SE14G23   30.00F HX  98
BOOTHVILLE     PTSUNNY   89  76  65 S13       30.04F HX 100
BELLE CHASSE   PTSUNNY   88  75  65 E10       30.03F HX  97
BOGALUSA*      FAIR      92  73  53 S10       30.05F HX 101
GALLIANO*      NOT AVBL
NEW ROADS*     FAIR      87  75  67 SE8       30.00F HX  97
GONZALES*      FAIR      89  76  67 SE8       30.00F HX 100
HAMMOND*       PTSUNNY   84  75  74 SE7       30.04F
HOUMA*         PTSUNNY   90  73  58 S16       30.02F HX  98
PORT FOURCHON* PTCLDY    86  77  74 SE13      30.05F HX  97

$$

LAZ041-044-053-054-012000-
SOUTHWEST LOUISIANA

CITY           SKY/WX    TMP DP  RH WIND       PRES   REMARKS
LAKE CHARLES   PTSUNNY   89  77  67 S12       29.98F HX 101
LAFAYETTE      MOSUNNY   89  75  63 SE9G17    30.00F THUNDER HX  99
PATTERSON      MOSUNNY   90  79  70 S13       30.03F HX 105
SALT POINT       N/A     91  79  67 VRB6G16   30.00F HX 107
NEW IBERIA     MOSUNNY   92  76  59 S15G23    30.00F HX 104
CHENAULT AIRPK PTSUNNY   90  75  62 S14G21    29.99F HX 100

$$

LAZ027-028-012000-
CENTRAL LOUISIANA

CITY           SKY/WX    TMP DP  RH WIND       PRES   REMARKS
FORT POLK      LGT RAIN  85  76  74 SE17      29.99F
ALEXANDRIA INT SUNNY     91  75  59 SE12      29.97F HX 101
ALEXANDRIA     MOSUNNY   93  75  55 S9        29.99F HX 104

$$

LAZ001-002-012000-
NORTHWEST LOUISIANA

CITY           SKY/WX    TMP DP  RH WIND       PRES   REMARKS
SHREVEPORT     PTSUNNY   92  71  50 SE7G17    29.96F HX  98
BARKSDALE AFB  SUNNY     93  73  52 SE13      29.97F HX 102
DTN SHREVEPORT PTSUNNY   90  73  57 SE8       29.97F HX  98

$$

LAZ014-016-012000-
NORTHEAST LOUISIANA

CITY           SKY/WX    TMP DP  RH WIND       PRES   REMARKS
MONROE         PTSUNNY   89  74  60 S10G16    30.01F HX  98
TALLULAH       PTSUNNY   90  73  57 S10       30.03F HX  98

$$



USA.gov is the U.S. government's official web portal to all federal, state and local government web resources and services.